GW3984 Weather Reports


Display with metric or nautical units.
time (UTC)temp
F
wind
direction
speed
MPH
gust
MPH
rain 1hr
in
rain 24hr
in
rain mn
in
humidity
%
barometer
mb
20260505173348 78 125 0.0 4.0 0.00 0.00 0.00 79 1009.0
20260505173036 78 193 2.0 6.0 0.00 0.00 0.00 80 1009.7
20260505172356 77 1 0.0 4.0 0.00 0.00 0.00 80 1009.1
20260505171538 76 184 1.0 4.0 0.00 0.00 0.00 81 1009.8
20260505170235 77 68 0.0 4.0 0.00 0.00 0.00 79 1009.1
20260505170027 77 243 0.0 4.0 0.00 0.00 0.00 79 1009.8
20260505165240 78 201 0.0 3.0 0.00 0.00 0.00 80 1009.1
20260505164525 76 203 0.0 6.0 0.00 0.00 0.00 82 1009.7
20260505164231 76 21 0.0 3.0 0.00 0.00 0.00 84 1008.9
20260505163246 74 186 0.0 2.0 0.00 0.00 0.00 86 1009.0
20260505163024 74 173 1.0 2.0 0.00 0.00 0.00 86 1009.8
20260505162249 74 342 0.0 3.0 0.00 0.00 0.00 87 1009.1
20260505161518 73 124 1.0 2.0 0.00 0.00 0.00 87 1009.9
20260505161257 73 102 0.0 3.0 0.00 0.00 0.00 87 1009.1
20260505153104 72 207 0.0 1.0 0.00 0.00 0.00 89 1009.1
20260505153013 72 209 0.0 2.0 0.00 0.00 0.00 89 1009.9
20260505152046 72 343 0.0 1.0 0.00 0.00 0.00 90 1009.0
20260505151520 71 293 0.0 3.0 0.00 0.00 0.00 90 1009.7
20260505151028 71 186 0.0 2.0 0.00 0.00 0.00 91 1009.0
20260505124740 69 295 0.0 4.0 0.00 0.00 0.00 91 1008.6
20260505124510 69 186 1.0 4.0 0.00 0.00 0.00 90 1009.3
20260505123800 69 287 0.0 4.0 0.00 0.00 0.00 90 1008.5
20260505123007 69 119 0.0 3.0 0.00 0.00 0.00 90 1009.1
20260505122818 69 183 0.0 2.0 0.00 0.00 0.00 90 1008.3
20260505121813 69 205 0.0 2.0 0.00 0.00 0.00 90 1008.1
20260505121533 69 190 0.0 4.0 0.00 0.00 0.00 90 1008.8
20260505120805 69 160 0.0 2.0 0.00 0.00 0.00 90 1007.9
20260505120048 69 36 0.0 3.0 0.00 0.00 0.00 90 1008.7
20260505115813 69 156 0.0 2.0 0.00 0.00 0.00 90 1007.8
20260505114522 69 107 0.0 4.0 0.00 0.00 0.00 90 1008.5
20260505113659 69 85 0.0 3.0 0.00 0.00 0.00 90 1007.6
20260505113018 69 128 1.0 4.0 0.00 0.00 0.00 90 1008.5
20260505112642 69 132 0.0 5.0 0.00 0.00 0.00 90 1007.8
20260505111628 69 96 0.0 5.0 0.00 0.00 0.00 90 1007.6
20260505111520 69 246 1.0 6.0 0.00 0.00 0.00 90 1008.3
20260505110627 69 96 0.0 3.0 0.00 0.00 0.00 90 1007.7
20260505101548 69 295 0.0 3.0 0.00 0.00 0.00 90 1007.7
20260505101527 69 114 1.0 4.0 0.00 0.00 0.00 90 1008.5
20260505100605 69 187 0.0 3.0 0.00 0.00 0.00 90 1007.9
20260505100028 69 98 0.0 6.0 0.00 0.00 0.00 89 1008.6
20260505095543 69 79 0.0 7.0 0.00 0.00 0.00 90 1007.9
20260505094601 69 169 0.0 7.0 0.00 0.00 0.00 90 1007.9
20260505094526 69 126 2.0 9.0 0.00 0.00 0.00 89 1008.6
20260505093024 69 22 1.0 8.0 0.00 0.00 0.00 89 1008.7
20260505091527 69 70 2.0 4.0 0.00 0.00 0.00 89 1008.8
20260505091238 69 193 0.0 2.0 0.00 0.00 0.00 89 1008.1
20260505090210 69 84 0.0 5.0 0.00 0.00 0.00 89 1008.1
20260505090036 69 64 2.0 7.0 0.00 0.00 0.00 89 1008.9
20260505085207 69 127 0.0 3.0 0.00 0.00 0.00 89 1008.1
20260505084516 69 205 1.0 8.0 0.00 0.00 0.00 88 1008.8
20260505084231 69 61 0.0 5.0 0.00 0.00 0.00 89 1008.1
20260505083247 69 259 0.0 3.0 0.00 0.00 0.00 89 1008.2
20260505083016 69 55 1.0 4.0 0.00 0.00 0.00 88 1008.9
20260505082305 70 44 0.0 4.0 0.00 0.00 0.00 89 1008.4
20260505081528 69 146 1.0 6.0 0.00 0.00 0.00 88 1009.3
20260505081253 70 195 0.0 6.0 0.00 0.00 0.00 89 1008.5
20260505080222 70 160 0.0 6.0 0.00 0.00 0.00 88 1008.5
20260505080035 69 122 0.0 9.0 0.00 0.00 0.00 88 1009.1
20260505075236 70 118 0.0 3.0 0.00 0.00 0.00 88 1008.6
20260505074524 69 82 3.0 7.0 0.00 0.00 0.00 88 1009.4
20260505074218 70 124 0.0 6.0 0.00 0.00 0.00 88 1008.6
20260505073223 70 296 1.0 6.0 0.00 0.00 0.00 88 1008.9
20260505073042 69 125 2.0 8.0 0.00 0.00 0.00 87 1009.7
20260505072222 70 343 0.0 0.0 0.00 0.00 0.00 88 1009.0
20260505071522 69 278 1.0 6.0 0.00 0.00 0.00 87 1009.8
20260505071226 70 176 0.0 5.0 0.00 0.00 0.00 87 1009.3
20260505070246 70 54 0.0 5.0 0.00 0.00 0.00 87 1009.5
20260505070023 69 153 1.0 6.0 0.00 0.00 0.00 87 1010.2
20260505065228 70 139 0.0 6.0 0.00 0.00 0.00 87 1009.6
20260505064534 70 85 2.0 8.0 0.00 0.00 0.00 86 1010.4
20260505064232 70 210 1.0 7.0 0.00 0.00 0.00 87 1009.7
20260505063231 70 81 1.0 7.0 0.00 0.00 0.00 86 1009.7
20260505063018 70 142 1.0 9.0 0.00 0.00 0.00 86 1010.5
20260505062232 70 176 1.0 5.0 0.00 0.00 0.00 86 1009.6
20260505061544 70 106 2.0 7.0 0.00 0.00 0.00 86 1010.2
20260505061219 70 208 1.0 7.0 0.00 0.00 0.00 86 1009.6
20260505060233 71 117 1.0 8.0 0.00 0.00 0.00 86 1009.8
20260505060006 70 178 2.0 9.0 0.00 0.00 0.00 85 1010.7
20260505055212 71 152 1.0 8.0 0.00 0.00 0.00 86 1010.0
20260505054505 70 160 2.0 7.0 0.00 0.00 0.00 85 1010.7
20260505054200 71 172 1.0 5.0 0.00 0.00 0.00 86 1009.9
20260505053210 71 165 1.0 6.0 0.00 0.00 0.00 85 1009.9
20260505053005 70 220 2.0 8.0 0.00 0.00 0.00 85 1010.7
20260505052138 71 179 1.0 6.0 0.00 0.00 0.00 85 1009.8
20260505051506 70 176 1.0 5.0 0.00 0.00 0.00 85 1010.5
20260505051117 71 133 1.0 5.0 0.00 0.00 0.00 85 1009.8
20260505050120 71 115 1.0 6.0 0.00 0.00 0.00 85 1009.7
20260505041511 72 136 1.0 9.0 0.00 0.00 0.00 82 1010.7
20260505040854 72 129 1.0 9.0 0.00 0.00 0.00 82 1010.0
20260505040005 72 96 3.0 11.0 0.00 0.00 0.00 81 1010.7
20260505035824 72 148 1.0 5.0 0.00 0.00 0.00 82 1010.0
20260505034840 73 189 1.0 5.0 0.00 0.00 0.00 81 1009.8
20260505034509 72 309 0.0 6.0 0.00 0.00 0.00 80 1010.4
20260505033852 73 134 1.0 5.0 0.00 0.00 0.00 80 1009.8
20260505033003 72 106 0.0 4.0 0.00 0.00 0.00 79 1010.4
20260505031746 73 172 0.0 3.0 0.00 0.00 0.00 77 1009.6
20260505031514 73 125 2.0 4.0 0.00 0.00 0.00 77 1010.2
20260505030726 74 131 0.0 3.0 0.00 0.00 0.00 76 1009.6
20260505030006 73 196 0.0 3.0 0.00 0.00 0.00 76 1010.3
20260505024608 74 136 0.0 3.0 0.00 0.00 0.00 76 1009.7
20260505024510 73 203 0.0 4.0 0.00 0.00 0.00 76 1010.4
20260505023558 74 126 0.0 3.0 0.00 0.00 0.00 75 1009.7
20260505023010 74 109 0.0 4.0 0.00 0.00 0.00 75 1010.4
20260505022549 74 139 0.0 2.0 0.00 0.00 0.00 75 1009.7
20260505021543 74 107 0.0 1.0 0.00 0.00 0.00 75 1009.7
20260505021504 74 164 0.0 2.0 0.00 0.00 0.00 74 1010.4
20260505020554 74 110 0.0 1.0 0.00 0.00 0.00 74 1009.5
20260505020013 74 102 0.0 2.0 0.00 0.00 0.00 73 1010.2
20260505015559 75 113 0.0 0.0 0.00 0.00 0.00 73 1009.4
20260505014504 75 134 0.0 4.0 0.00 0.00 0.00 72 1010.1
20260505013507 75 185 0.0 1.0 0.00 0.00 0.00 72 1009.3
20260505013006 75 122 1.0 4.0 0.00 0.00 0.00 71 1010.0
20260505012530 75 136 0.0 3.0 0.00 0.00 0.00 72 1009.3
20260505011524 76 125 0.0 6.0 0.00 0.00 0.00 71 1009.2
20260505011508 75 114 0.0 4.0 0.00 0.00 0.00 70 1009.8
20260505010542 76 143 0.0 6.0 0.00 0.00 0.00 70 1009.1
20260505010004 76 101 1.0 8.0 0.00 0.00 0.00 69 1009.9
20260505004515 77 134 2.0 8.0 0.00 0.00 0.00 67 1009.8
20260505004417 77 81 1.0 5.0 0.00 0.00 0.00 67 1009.1
20260505003006 77 192 1.0 7.0 0.00 0.00 0.00 66 1009.7
20260505002245 78 87 1.0 8.0 0.00 0.00 0.00 66 1008.9
20260505001508 78 169 3.0 10.0 0.00 0.00 0.00 64 1009.9
20260505001214 78 72 1.0 9.0 0.00 0.00 0.00 64 1009.0
20260505000143 79 96 1.0 9.0 0.00 0.00 0.00 64 1008.9
20260505000009 78 95 2.0 9.0 0.00 0.00 0.00 63 1009.8
20260504235159 79 118 1.0 9.0 0.00 0.00 0.00 64 1009.2
20260504234508 79 165 3.0 11.0 0.00 0.00 0.00 63 1010.0
20260504234150 79 129 0.0 5.0 0.00 0.00 0.00 64 1009.3
20260504233210 79 174 0.0 5.0 0.00 0.00 0.00 64 1009.5
20260504233008 79 193 2.0 7.0 0.00 0.00 0.00 63 1010.3
20260504232156 79 90 1.0 6.0 0.00 0.00 0.00 63 1009.6
20260504231510 79 193 2.0 8.0 0.00 0.00 0.00 62 1010.5
20260504230013 80 169 1.0 7.0 0.00 0.00 0.00 64 1009.9
20260504230010 79 162 1.0 9.0 0.00 0.00 0.00 63 1010.7
20260504224952 79 103 0.0 5.0 0.00 0.00 0.00 63 1010.0
20260504224510 79 346 2.0 7.0 0.00 0.00 0.00 61 1010.9
20260504224007 80 118 0.0 5.0 0.00 0.00 0.00 63 1010.2
20260504223008 79 138 1.0 7.0 0.00 0.00 0.00 62 1011.0
20260504221812 79 181 1.0 11.0 0.00 0.00 0.00 63 1010.3
20260504221510 78 101 2.0 8.0 0.00 0.00 0.00 62 1011.0
20260504220755 80 160 2.0 11.0 0.00 0.00 0.00 62 1010.4
20260504220013 80 123 4.0 10.0 0.00 0.00 0.00 60 1011.1
20260504215758 80 333 1.0 9.0 0.00 0.00 0.00 62 1010.3
20260504214509 78 134 1.0 10.0 0.00 0.00 0.00 64 1011.2
20260504213013 79 109 4.0 13.0 0.00 0.00 0.00 62 1011.3
20260504212527 80 200 1.0 6.0 0.00 0.00 0.00 62 1010.5
20260504211550 79 126 1.0 6.0 0.00 0.00 0.00 63 1010.8
20260504211512 79 116 3.0 8.0 0.00 0.00 0.00 62 1011.6
20260504210021 78 47 2.0 10.0 0.00 0.00 0.00 63 1012.0
20260504205439 79 209 1.0 8.0 0.00 0.00 0.00 64 1011.4
20260504204511 78 138 1.0 7.0 0.00 0.00 0.00 64 1012.1
20260504204452 78 150 1.0 7.0 0.00 0.00 0.00 64 1011.4
20260504203439 79 211 1.0 7.0 0.00 0.00 0.00 64 1011.6
20260504203014 78 207 3.0 9.0 0.00 0.00 0.00 64 1012.3
20260504202434 78 318 1.0 7.0 0.00 0.00 0.00 65 1011.7
20260504201506 78 180 3.0 8.0 0.00 0.00 0.00 63 1012.5
20260504201432 78 94 1.0 6.0 0.00 0.00 0.00 63 1011.8
20260504200012 78 101 2.0 7.0 0.00 0.00 0.00 63 1012.7
20260504195332 78 61 1.0 8.0 0.00 0.00 0.00 63 1012.2
20260504194514 78 185 2.0 10.0 0.00 0.00 0.00 63 1012.9
20260504194321 79 134 1.0 8.0 0.00 0.00 0.00 63 1012.2
20260504193014 80 338 1.0 9.0 0.00 0.00 0.00 64 1012.9
20260504192200 79 163 3.0 10.0 0.00 0.00 0.00 62 1012.4
20260504191516 78 117 5.0 12.0 0.00 0.00 0.00 61 1013.2
20260504191155 80 111 0.0 7.0 0.00 0.00 0.00 63 1012.5
20260504190205 81 76 1.0 6.0 0.00 0.00 0.00 59 1012.5
20260504190015 81 214 1.0 9.0 0.00 0.00 0.00 60 1013.2
20260504185152 81 160 1.0 7.0 0.00 0.00 0.00 61 1012.7
20260504184515 81 175 1.0 9.0 0.00 0.00 0.00 61 1013.4
20260504183050 81 190 0.0 5.0 0.00 0.00 0.00 58 1013.3
20260504183008 80 204 1.0 7.0 0.00 0.00 0.00 58 1014.0
20260504182032 80 1 0.0 3.0 0.00 0.00 0.00 60 1013.1
20260504181507 80 320 1.0 4.0 0.00 0.00 0.00 60 1014.0
20260504181020 80 88 0.0 5.0 0.00 0.00 0.00 61 1013.4
20260504180018 81 200 0.0 5.0 0.00 0.00 0.00 58 1014.1
20260504175955 81 56 1.0 8.0 0.00 0.00 0.00 59 1013.5
20260504174940 79 53 1.0 8.0 0.00 0.00 0.00 62 1013.5
20260504174517 78 138 2.0 9.0 0.00 0.00 0.00 64 1014.2
20260504173928 78 113 1.0 8.0 0.00 0.00 0.00 66 1013.7